This demonstration page uses our WeatherBlox Daily Observations layout. Learn more.

Left ArrowRight Arrow

Hourly Observations for June 18, 2021

Temp ( °F °C ) Dew Point ( °F °C ) Humidity (%) Winds ( mph kmh ) Pressure ( in mb ) Visibility ( mi km ) Precip ( " mm )
12:53 am 00:53 Clear 63 17.2 59 15 87 87 N N/A 29.99 1016 10 16 N/A
1:53 am 01:53 Clear 62 16.7 59 15 90 90 N N/A 29.99 1016 10 16 N/A
2:53 am 02:53 Clear 62 16.7 59 15 90 90 N N/A 29.98 1015 10 16 N/A
3:53 am 03:53 Clear 62 16.7 60 15.6 93 93 N N/A 29.95 1014 10 16 N/A
4:53 am 04:53 Clear 61 16.1 59 15 93 93 N N/A 29.94 1014 10 16 N/A
5:53 am 05:53 Clear 62 16.7 60 15.6 93 93 N N/A 29.95 1014 9 14 N/A
6:53 am 06:53 Sunny 64 17.8 61 16.1 90 90 ESE 3 6 29.95 1014 10 16 N/A
7:53 am 07:53 Sunny 69 20.6 63 17.2 81 81 ESE 3 6 29.94 1014 10 16 N/A
8:53 am 08:53 Sunny 75 23.9 64 17.8 69 69 N N/A 29.94 1014 10 16 N/A
9:53 am 09:53 Cloudy 76 24.4 65 18.3 69 69 VRB 3 6 29.96 1015 10 16 N/A
10:48 am 10:48 Partly Cloudy with Nearby Thunderstorms 73 23 66 19 78 78 N N/A 29.97 1015 10 16 N/A
10:53 am 10:53 Mostly Cloudy with Nearby Thunderstorms 74 23.3 66 18.9 76 76 NW 10 17 30.01 1016 10 16 N/A
11:03 am 11:03 Mostly Cloudy with Strong Thunderstorms 72 22.2 65 18.3 79 79 NNE 16 26 29.99 1016 2 3 0.21 5.33
11:07 am 11:07 Cloudy with Strong Thunderstorms 70 21.1 66 18.9 87 87 NNE 15 24 30.01 1016 1 2 0.32 8.13
11:11 am 11:11 Cloudy with Strong Thunderstorms 69 20.6 66 18.9 90 90 VRB 7 11 30.03 1017 1 1 0.38 9.65
11:18 am 11:18 Cloudy with Strong Thunderstorms 69 20.6 66 18.9 90 90 ESE 9 15 29.98 1015 1 2 0.52 13.21
11:28 am 11:28 Cloudy with Thunderstorms 69 20.6 67 19.4 93 93 VRB 6 9 29.98 1015 2 3 0.55 13.97
11:34 am 11:34 Cloudy with Nearby Thunderstorms 69 20.6 67 19.4 93 93 ESE 5 7 29.97 1015 5 8 0.55 13.97
11:53 am 11:53 Partly Cloudy 69 20.6 67 19.4 93 93 VRB 3 6 29.95 1014 7 11 0.55 13.97
12:53 pm 12:53 Sunny 72 22.2 69 20.6 91 91 VRB 6 9 29.91 1013 9 14 N/A
1:53 pm 13:53 Sunny 77 25 70 21.1 79 79 VRB 5 7 29.91 1013 10 16 N/A
2:53 pm 14:53 Sunny 83 28.3 72 22.2 70 70 VRB 5 7 29.90 1013 10 16 N/A
3:53 pm 15:53 Sunny 88 31.1 74 23.3 63 63 S 8 13 29.84 1010 10 16 N/A
4:53 pm 16:53 Mostly Sunny 89 31.7 74 23.3 61 61 SSW 8 13 29.80 1009 10 16 N/A
5:53 pm 17:53 Mostly Sunny 89 31.7 73 22.8 59 59 VRB 7 11 29.80 1009 10 16 N/A
6:53 pm 18:53 Mostly Sunny 89 31.7 73 22.8 59 59 VRB 6 9 29.81 1009 10 16 N/A
7:53 pm 19:53 Sunny 86 30 72 22.2 63 63 VRB 7 11 29.80 1009 10 16 N/A
8:30 pm 20:30 Sunny with Nearby Thunderstorms 85 29.4 72 22.2 65 65 VRB 7 11 29.79 1009 10 16 N/A
8:48 pm 20:48 Partly Cloudy with Thunderstorms 84 29 72 22 66 66 N N/A 29.79 1009 10 16 N/A
8:53 pm 20:53 Mostly Cloudy with Thunderstorms 85 29.4 71 21.7 63 63 VRB 7 11 29.83 1010 10 16 N/A
9:14 pm 21:14 Cloudy with Strong Thunderstorms 77 25 73 22.8 88 88 W 18 30 29.89 1012 3 4 0.18 4.57
9:25 pm 21:25 Cloudy with Strong Thunderstorms 72 22.2 70 21.1 94 94 WSW 10 17 29.89 1012 3 4 0.29 7.37
9:33 pm 21:33 Mostly Cloudy with Thunderstorms 71 21.7 67 19.4 87 87 W 10 17 29.90 1013 7 11 0.29 7.37
9:53 pm 21:53 Mostly Cloudy with Thunderstorms 70 21.1 66 18.9 87 87 VRB 3 6 29.90 1013 10 16 0.30 7.62
10:05 pm 22:05 Mostly Cloudy 71 21.7 68 20 90 90 VRB 6 9 29.90 1013 10 16 0.00 0.00
10:42 pm 22:42 Partly Cloudy with Nearby Thunderstorms 69 20.6 66 18.9 90 90 N N/A 29.91 1013 10 16 0.00 0.00
10:53 pm 22:53 Mostly Cloudy with Nearby Thunderstorms 69 20.6 66 18.9 90 90 N N/A 29.92 1013 10 16 0.00 0.00
11:03 pm 23:03 Mostly Cloudy with Thunderstorms 69 20.6 66 18.9 90 90 VRB 5 7 29.91 1013 7 11 0.02 0.51
11:09 pm 23:09 Mostly Cloudy with Strong Thunderstorms 68 20 66 18.9 93 93 N N/A 29.93 1013 2 3 0.19 4.83
11:15 pm 23:15 Mostly Cloudy with Thunderstorms 68 20 66 18.9 93 93 N 10 17 29.94 1014 2 3 0.19 4.83
11:19 pm 23:19 Mostly Cloudy with Thunderstorms 68 20 66 18.9 93 93 NNE 8 13 29.94 1014 7 11 0.20 5.08
11:34 pm 23:34 Cloudy with Nearby Thunderstorms 68 20 67 19.4 96 96 VRB 6 9 29.92 1013 6 10 0.23 5.84
11:53 pm 23:53 Mostly Cloudy 68 20 67 19.4 96 96 VRB 3 6 29.93 1014 10 16 0.23 5.84

Powered by AerisWeather